| time (UTC) | temp C | wind direction | speed KPH | gust KPH | rain 1hr cm | rain 24hr cm | rain mn cm | humidity % | barometer mb |
| 20260505171004 | 28 | 241 | 3.2 | 11.3 | 0.00 | 0.00 | 0.00 | 44 | 1014.1 |
| 20260505170005 | 28 | 205 | 1.6 | 9.7 | 0.00 | 0.00 | 0.00 | 46 | 1014.1 |
| 20260505165004 | 27 | 295 | 0.0 | 4.8 | 0.00 | 0.00 | 0.00 | 45 | 1014.1 |
| 20260505164004 | 27 | 258 | 1.6 | 11.3 | 0.00 | 0.00 | 0.00 | 49 | 1014.1 |
| 20260505163003 | 27 | 267 | 0.0 | 4.8 | 0.00 | 0.00 | 0.00 | 49 | 1014.1 |
| 20260505162004 | 27 | 211 | 3.2 | 12.9 | 0.00 | 0.00 | 0.00 | 48 | 1014.3 |
| 20260505161004 | 26 | 259 | 0.0 | 8.0 | 0.00 | 0.00 | 0.00 | 48 | 1014.3 |
| 20260505153004 | 26 | 251 | 0.0 | 8.0 | 0.00 | 0.00 | 0.00 | 53 | 1014.3 |
| 20260505152003 | 25 | 281 | 0.0 | 11.3 | 0.00 | 0.00 | 0.00 | 55 | 1014.3 |
| 20260505125004 | 19 | 0 | 0.0 | 4.8 | 0.00 | 0.00 | 0.00 | 70 | 1014.5 |
| 20260505123004 | 18 | 0 | 0.0 | 1.6 | 0.00 | 0.00 | 0.00 | 73 | 1014.5 |
| 20260505122005 | 17 | 239 | 0.0 | 11.3 | 0.00 | 0.00 | 0.00 | 73 | 1014.5 |
| 20260505120005 | 17 | 225 | 0.0 | 3.2 | 0.00 | 0.00 | 0.00 | 76 | 1014.5 |
| 20260505115004 | 16 | 0 | 0.0 | 1.6 | 0.00 | 0.00 | 0.00 | 77 | 1014.5 |
| 20260505113005 | 16 | 0 | 0.0 | 8.0 | 0.00 | 0.00 | 0.00 | 78 | 1014.5 |
| 20260505112003 | 16 | 0 | 0.0 | 0.0 | 0.00 | 0.00 | 0.00 | 79 | 1013.0 |
| 20260505111003 | 15 | 0 | 0.0 | 0.0 | 0.00 | 0.00 | 0.00 | 79 | 1013.0 |
| 20260505102004 | 15 | 0 | 0.0 | 4.8 | 0.00 | 0.00 | 0.00 | 79 | 1013.0 |
| 20260505100005 | 15 | 0 | 0.0 | 0.0 | 0.00 | 0.00 | 0.00 | 79 | 1013.0 |
| 20260505094004 | 15 | 0 | 0.0 | 0.0 | 0.00 | 0.00 | 0.00 | 78 | 1013.0 |
| 20260505093004 | 16 | 0 | 0.0 | 0.0 | 0.00 | 0.00 | 0.00 | 78 | 1013.0 |
| 20260505092003 | 16 | 0 | 0.0 | 0.0 | 0.00 | 0.00 | 0.00 | 78 | 1013.0 |
| 20260505091004 | 16 | 0 | 0.0 | 0.0 | 0.00 | 0.00 | 0.00 | 78 | 1013.0 |
| 20260505090005 | 16 | 0 | 0.0 | 0.0 | 0.00 | 0.00 | 0.00 | 77 | 1013.0 |
| 20260505085005 | 16 | 0 | 0.0 | 0.0 | 0.00 | 0.00 | 0.00 | 76 | 1013.0 |
| 20260505084004 | 16 | 0 | 0.0 | 0.0 | 0.00 | 0.00 | 0.00 | 76 | 1013.0 |
| 20260505082004 | 16 | 0 | 0.0 | 0.0 | 0.00 | 0.00 | 0.00 | 75 | 1013.0 |
| 20260505081004 | 16 | 0 | 0.0 | 0.0 | 0.00 | 0.00 | 0.00 | 75 | 1013.0 |
| 20260505080004 | 16 | 0 | 0.0 | 0.0 | 0.00 | 0.00 | 0.00 | 75 | 1013.0 |
| 20260505075004 | 16 | 0 | 0.0 | 0.0 | 0.00 | 0.00 | 0.00 | 75 | 1013.0 |
| 20260505074004 | 16 | 0 | 0.0 | 0.0 | 0.00 | 0.00 | 0.00 | 75 | 1013.0 |
| 20260505073004 | 17 | 0 | 0.0 | 4.8 | 0.00 | 0.00 | 0.00 | 75 | 1013.1 |
| 20260505072003 | 17 | 0 | 0.0 | 3.2 | 0.00 | 0.00 | 0.00 | 74 | 1013.1 |
| 20260505071003 | 17 | 0 | 0.0 | 0.0 | 0.00 | 0.00 | 0.00 | 74 | 1013.1 |
| 20260505070005 | 17 | 0 | 0.0 | 0.0 | 0.00 | 0.00 | 0.00 | 73 | 1013.1 |
| 20260505065003 | 17 | 0 | 0.0 | 3.2 | 0.00 | 0.00 | 0.00 | 73 | 1013.1 |
| 20260505064004 | 17 | 0 | 0.0 | 0.0 | 0.00 | 0.00 | 0.00 | 74 | 1013.1 |
| 20260505063005 | 17 | 0 | 0.0 | 12.9 | 0.00 | 0.00 | 0.00 | 74 | 1013.1 |
| 20260505061005 | 17 | 0 | 0.0 | 9.7 | 0.00 | 0.00 | 0.00 | 75 | 1013.1 |
| 20260505060004 | 17 | 0 | 0.0 | 8.0 | 0.00 | 0.00 | 0.00 | 74 | 1013.1 |
| 20260505055003 | 17 | 0 | 0.0 | 1.6 | 0.00 | 0.00 | 0.00 | 75 | 1013.1 |
| 20260505054003 | 17 | 0 | 0.0 | 4.8 | 0.00 | 0.00 | 0.00 | 74 | 1013.1 |
| 20260505052003 | 17 | 0 | 0.0 | 9.7 | 0.00 | 0.00 | 0.00 | 74 | 1013.1 |
| 20260505051004 | 18 | 0 | 0.0 | 1.6 | 0.00 | 0.00 | 0.00 | 73 | 1013.1 |
| 20260505041003 | 18 | 0 | 1.6 | 12.9 | 0.00 | 0.00 | 0.00 | 74 | 1012.9 |
| 20260505035004 | 18 | 0 | 0.0 | 8.0 | 0.00 | 0.00 | 0.00 | 74 | 1012.9 |
| 20260505034004 | 18 | 0 | 0.0 | 0.0 | 0.00 | 0.00 | 0.00 | 73 | 1012.9 |
| 20260505033003 | 18 | 8 | 0.0 | 0.0 | 0.00 | 0.00 | 0.00 | 73 | 1012.7 |
| 20260505031004 | 18 | 0 | 0.0 | 1.6 | 0.00 | 0.00 | 0.00 | 72 | 1012.7 |
| 20260505025004 | 18 | 0 | 0.0 | 4.8 | 0.00 | 0.00 | 0.00 | 71 | 1011.2 |
| 20260505024004 | 18 | 0 | 0.0 | 8.0 | 0.00 | 0.00 | 0.00 | 71 | 1011.2 |
| 20260505023004 | 18 | 0 | 0.0 | 0.0 | 0.00 | 0.00 | 0.00 | 69 | 1011.2 |
| 20260505020005 | 18 | 4 | 0.0 | 0.0 | 0.00 | 0.00 | 0.00 | 63 | 1011.2 |
| 20260505014004 | 18 | 0 | 0.0 | 0.0 | 0.00 | 0.00 | 0.00 | 63 | 1011.2 |
| 20260505013004 | 18 | 0 | 0.0 | 0.0 | 0.00 | 0.00 | 0.00 | 62 | 1011.2 |
| 20260505012003 | 18 | 0 | 0.0 | 0.0 | 0.00 | 0.00 | 0.00 | 61 | 1011.2 |
| 20260505005004 | 20 | 0 | 0.0 | 0.0 | 0.00 | 0.00 | 0.00 | 57 | 1011.2 |
| 20260505003004 | 20 | 0 | 0.0 | 0.0 | 0.00 | 0.00 | 0.00 | 55 | 1011.2 |
| 20260505002004 | 21 | 0 | 0.0 | 0.0 | 0.00 | 0.00 | 0.00 | 55 | 1011.2 |
| 20260505001003 | 21 | 178 | 0.0 | 0.0 | 0.00 | 0.00 | 0.00 | 54 | 1011.2 |
| 20260504235005 | 22 | 282 | 0.0 | 0.0 | 0.00 | 0.00 | 0.00 | 54 | 1011.2 |
| 20260504234004 | 22 | 282 | 0.0 | 0.0 | 0.00 | 0.00 | 0.00 | 53 | 1011.0 |
| 20260504232003 | 22 | 232 | 0.0 | 0.0 | 0.00 | 0.00 | 0.00 | 48 | 1011.2 |
| 20260504231004 | 23 | 250 | 0.0 | 0.0 | 0.00 | 0.00 | 0.00 | 48 | 1011.1 |
| 20260504230005 | 23 | 258 | 0.0 | 0.0 | 0.00 | 0.00 | 0.00 | 47 | 1011.1 |
| 20260504225004 | 23 | 218 | 0.0 | 3.2 | 0.00 | 0.00 | 0.00 | 48 | 1011.1 |
| 20260504224003 | 23 | 269 | 0.0 | 0.0 | 0.00 | 0.00 | 0.00 | 46 | 1011.1 |
| 20260504223004 | 23 | 233 | 0.0 | 3.2 | 0.00 | 0.00 | 0.00 | 44 | 1010.9 |
| 20260504222004 | 23 | 332 | 0.0 | 1.6 | 0.00 | 0.00 | 0.00 | 45 | 1010.9 |
| 20260504221003 | 23 | 295 | 0.0 | 0.0 | 0.00 | 0.00 | 0.00 | 46 | 1010.9 |
| 20260504220005 | 24 | 198 | 0.0 | 8.0 | 0.00 | 0.00 | 0.00 | 43 | 1010.9 |
| 20260504214004 | 24 | 223 | 0.0 | 9.7 | 0.00 | 0.00 | 0.00 | 43 | 1010.9 |
| 20260504213004 | 24 | 287 | 0.0 | 8.0 | 0.00 | 0.00 | 0.00 | 45 | 1010.9 |
| 20260504212004 | 25 | 204 | 0.0 | 1.6 | 0.00 | 0.00 | 0.00 | 40 | 1010.8 |
| 20260504211004 | 25 | 215 | 0.0 | 4.8 | 0.00 | 0.00 | 0.00 | 43 | 1010.8 |
| 20260504210004 | 26 | 0 | 1.6 | 12.9 | 0.00 | 0.00 | 0.00 | 40 | 1010.8 |
| 20260504205003 | 26 | 0 | 1.6 | 9.7 | 0.00 | 0.00 | 0.00 | 41 | 1010.8 |
| 20260504203004 | 26 | 123 | 0.0 | 4.8 | 0.00 | 0.00 | 0.00 | 41 | 1011.1 |
| 20260504202004 | 25 | 95 | 0.0 | 8.0 | 0.00 | 0.00 | 0.00 | 41 | 1011.1 |
| 20260504200004 | 26 | 274 | 0.0 | 4.8 | 0.00 | 0.00 | 0.00 | 39 | 1012.1 |
| 20260504195005 | 26 | 167 | 0.0 | 8.0 | 0.00 | 0.00 | 0.00 | 37 | 1012.1 |
| 20260504194004 | 26 | 245 | 1.6 | 11.3 | 0.00 | 0.00 | 0.00 | 41 | 1012.1 |
| 20260504193004 | 25 | 325 | 0.0 | 3.2 | 0.00 | 0.00 | 0.00 | 44 | 1012.1 |
| 20260504192003 | 25 | 202 | 0.0 | 3.2 | 0.00 | 0.00 | 0.00 | 41 | 1012.1 |
| 20260504191003 | 25 | 290 | 0.0 | 0.0 | 0.00 | 0.00 | 0.00 | 41 | 1013.0 |
| 20260504190004 | 25 | 115 | 0.0 | 0.0 | 0.00 | 0.00 | 0.00 | 39 | 1013.0 |
| 20260504185004 | 23 | 0 | 0.0 | 0.0 | 0.00 | 0.00 | 0.00 | 40 | 1013.0 |
| 20260504184004 | 24 | 0 | 0.0 | 4.8 | 0.00 | 0.00 | 0.00 | 36 | 1013.0 |
| 20260504183004 | 25 | 166 | 0.0 | 4.8 | 0.00 | 0.00 | 0.00 | 41 | 1013.0 |
| 20260504182004 | 24 | 112 | 0.0 | 0.0 | 0.00 | 0.00 | 0.00 | 47 | 1013.0 |
| 20260504181004 | 24 | 0 | 0.0 | 3.2 | 0.00 | 0.00 | 0.00 | 44 | 1013.0 |
| 20260504180004 | 24 | 0 | 0.0 | 3.2 | 0.00 | 0.00 | 0.00 | 42 | 1014.0 |
| 20260504175003 | 24 | 0 | 1.6 | 4.8 | 0.00 | 0.00 | 0.00 | 42 | 1014.0 |
| 20260504174003 | 24 | 0 | 0.0 | 0.0 | 0.00 | 0.00 | 0.00 | 46 | 1014.0 |
| 20260504173004 | 25 | 0 | 0.0 | 4.8 | 0.00 | 0.00 | 0.00 | 44 | 1014.0 |
| 20260504172004 | 25 | 0 | 0.0 | 3.2 | 0.00 | 0.00 | 0.00 | 41 | 1014.0 |